• In Belarus
  • List of Countries
  • For 7 days
  • Water Temperature
  • Satellite Maps
  • Weather Map
  • Weather Widgets
  • user-avatar
    Login

    Hourly Weather Sevan

    Today, 18 July, Thursday

    Time Temperature Precipitation Wind Pressure Humidity
    00:00 +20°C° 0 mm 3 mps 638 mmHg 61%
    01:00 +20°C° 0 mm 3 mps 638 mmHg 63%
    02:00 +19°C° 0 mm 2 mps 638 mmHg 65%
    03:00 +19°C° 0 mm 2 mps 638 mmHg 66%
    04:00 +19°C° 0 mm 2 mps 638 mmHg 65%
    05:00 +20°C° 0 mm 2 mps 639 mmHg 65%
    06:00 +20°C° 0 mm 2 mps 639 mmHg 64%
    07:00 +23°C° 0 mm 1 mps 640 mmHg 57%
    08:00 +25°C° 0 mm 1 mps 640 mmHg 50%
    09:00 +27°C° 0 mm 1 mps 641 mmHg 43%
    10:00 +29°C° 0 mm 2 mps 641 mmHg 38%
    11:00 +30°C° 0 mm 2 mps 641 mmHg 33%
    12:00 +31°C° 0 mm 3 mps 641 mmHg 28%
    13:00 +33°C° 0 mm 3 mps 641 mmHg 27%
    14:00 +33°C° 0 mm 3 mps 641 mmHg 26%
    15:00 +34°C° 0 mm 2 mps 641 mmHg 24%
    16:00 +32°C° 0 mm 2 mps 640 mmHg 29%
    17:00 +31°C° 0 mm 2 mps 640 mmHg 33%
    18:00 +30°C° 0 mm 2 mps 640 mmHg 38%
    19:00 +28°C° 0 mm 3 mps 640 mmHg 45%
    20:00 +26°C° 0 mm 3 mps 639 mmHg 51%
    21:00 +23°C° 0 mm 4 mps 639 mmHg 58%
    22:00 +22°C° 0 mm 4 mps 639 mmHg 57%
    23:00 +21°C° 0 mm 3 mps 639 mmHg 56%

    Tomorrow, 19 July, Friday

    Time Temperature Precipitation Wind Pressure Humidity
    00:00 +21°C° 0 mm 3 mps 640 mmHg 54%
    01:00 +20°C° 0 mm 3 mps 640 mmHg 56%
    02:00 +20°C° 0 mm 2 mps 640 mmHg 58%
    03:00 +19°C° 0 mm 2 mps 640 mmHg 60%
    04:00 +20°C° 0 mm 2 mps 640 mmHg 60%
    05:00 +20°C° 0 mm 2 mps 640 mmHg 60%
    06:00 +21°C° 0 mm 2 mps 640 mmHg 60%
    07:00 +24°C° 0 mm 2 mps 641 mmHg 55%
    08:00 +26°C° 0 mm 2 mps 642 mmHg 50%
    09:00 +28°C° 0 mm 2 mps 642 mmHg 45%
    10:00 +29°C° 0 mm 2 mps 643 mmHg 40%
    11:00 +30°C° 0 mm 2 mps 643 mmHg 35%
    12:00 +33°C° 0 mm 3 mps 643 mmHg 30%
    13:00 +33°C° 0.1 mm 3 mps 643 mmHg 30%
    14:00 +32°C° 0.1 mm 2 mps 643 mmHg 30%
    15:00 +34°C° 0.1 mm 2 mps 642 mmHg 30%
    16:00 +31°C° 0.1 mm 3 mps 642 mmHg 37%
    17:00 +30°C° 0.1 mm 3 mps 642 mmHg 44%
    18:00 +29°C° 0.1 mm 4 mps 642 mmHg 51%
    19:00 +27°C° 0 mm 4 mps 642 mmHg 57%
    20:00 +25°C° 0 mm 5 mps 642 mmHg 62%
    21:00 +22°C° 0 mm 5 mps 642 mmHg 68%
    22:00 +21°C° 0 mm 5 mps 642 mmHg 69%
    23:00 +20°C° 0 mm 4 mps 642 mmHg 71%

    Day after tomorrow, 20 July, Saturday

    Time Temperature Precipitation Wind Pressure Humidity
    00:00 +20°C° 0 mm 4 mps 642 mmHg 72%
    01:00 +20°C° 0 mm 3 mps 642 mmHg 73%
    02:00 +19°C° 0 mm 3 mps 642 mmHg 74%
    03:00 +19°C° 0 mm 3 mps 642 mmHg 75%
    04:00 +19°C° 0 mm 3 mps 643 mmHg 74%
    05:00 +20°C° 0 mm 2 mps 643 mmHg 73%
    06:00 +20°C° 0 mm 2 mps 643 mmHg 72%
    07:00 +23°C° 0 mm 2 mps 644 mmHg 65%
    08:00 +25°C° 0 mm 2 mps 644 mmHg 59%
    09:00 +27°C° 0 mm 2 mps 645 mmHg 53%
    10:00 +28°C° 0 mm 2 mps 645 mmHg 49%
    11:00 +30°C° 0 mm 2 mps 645 mmHg 45%
    12:00 +31°C° 0 mm 2 mps 645 mmHg 40%
    13:00 +33°C° 0 mm 3 mps 645 mmHg 39%
    14:00 +33°C° 0 mm 3 mps 645 mmHg 38%
    15:00 +34°C° 0 mm 3 mps 645 mmHg 37%
    16:00 +33°C° 0 mm 3 mps 645 mmHg 44%
    17:00 +30°C° 0 mm 4 mps 644 mmHg 50%
    18:00 +29°C° 0 mm 5 mps 644 mmHg 56%
    19:00 +27°C° 0 mm 5 mps 644 mmHg 61%
    20:00 +26°C° 0 mm 5 mps 644 mmHg 66%
    21:00 +23°C° 0 mm 5 mps 644 mmHg 71%
    22:00 +22°C° 0 mm 5 mps 644 mmHg 70%
    23:00 +22°C° 0 mm 4 mps 644 mmHg 69%

    21 July, Sunday

    Time Temperature Precipitation Wind Pressure Humidity
    00:00 +21°C° 0 mm 3 mps 644 mmHg 68%
    01:00 +21°C° 0 mm 3 mps 644 mmHg 69%
    02:00 +20°C° 0 mm 3 mps 644 mmHg 69%
    03:00 +20°C° 0 mm 3 mps 644 mmHg 70%
    04:00 +20°C° 0 mm 2 mps 644 mmHg 68%
    05:00 +21°C° 0 mm 2 mps 644 mmHg 67%
    06:00 +21°C° 0 mm 2 mps 644 mmHg 65%
    07:00 +24°C° 0 mm 2 mps 645 mmHg 58%
    08:00 +27°C° 0 mm 2 mps 645 mmHg 52%
    09:00 +29°C° 0 mm 2 mps 646 mmHg 45%
    10:00 +30°C° 0 mm 2 mps 646 mmHg 42%
    11:00 +32°C° 0 mm 2 mps 646 mmHg 38%
    12:00 +34°C° 0 mm 3 mps 646 mmHg 34%
    13:00 +35°C° 0 mm 3 mps 646 mmHg 34%
    14:00 +35°C° 0 mm 3 mps 645 mmHg 33%
    15:00 +36°C° 0 mm 4 mps 645 mmHg 32%
    16:00 +34°C° 0 mm 4 mps 644 mmHg 39%
    17:00 +33°C° 0 mm 4 mps 644 mmHg 45%
    18:00 +32°C° 0 mm 4 mps 643 mmHg 51%
    19:00 +29°C° 0 mm 4 mps 643 mmHg 53%
    20:00 +27°C° 0 mm 4 mps 643 mmHg 54%
    21:00 +25°C° 0 mm 4 mps 643 mmHg 56%
    22:00 +23°C° 0 mm 4 mps 643 mmHg 55%
    23:00 +24°C° 0 mm 3 mps 642 mmHg 55%

    22 July, Monday

    Time Temperature Precipitation Wind Pressure Humidity
    00:00 +22°C° 0 mm 3 mps 642 mmHg 54%
    01:00 +22°C° 0 mm 3 mps 642 mmHg 56%
    02:00 +21°C° 0 mm 3 mps 642 mmHg 57%
    03:00 +21°C° 0 mm 3 mps 641 mmHg 58%
    04:00 +21°C° 0 mm 2 mps 641 mmHg 58%
    05:00 +23°C° 0 mm 2 mps 642 mmHg 58%
    06:00 +23°C° 0 mm 2 mps 642 mmHg 57%
    07:00 +25°C° 0 mm 2 mps 642 mmHg 52%
    08:00 +27°C° 0 mm 2 mps 643 mmHg 47%
    09:00 +30°C° 0 mm 2 mps 643 mmHg 41%
    10:00 +31°C° 0 mm 2 mps 643 mmHg 38%
    11:00 +32°C° 0 mm 2 mps 643 mmHg 35%
    12:00 +35°C° 0 mm 2 mps 643 mmHg 32%
    13:00 +35°C° 0.1 mm 3 mps 643 mmHg 33%
    14:00 +35°C° 0.1 mm 3 mps 642 mmHg 34%
    15:00 +36°C° 0.1 mm 3 mps 642 mmHg 34%
    16:00 +34°C° 0.1 mm 4 mps 641 mmHg 42%
    17:00 +32°C° 0.1 mm 5 mps 641 mmHg 49%
    18:00 +29°C° 0.1 mm 6 mps 640 mmHg 56%
    19:00 +27°C° 0 mm 6 mps 640 mmHg 60%
    20:00 +24°C° 0 mm 6 mps 640 mmHg 63%
    21:00 +22°C° 0 mm 5 mps 640 mmHg 67%
    22:00 +22°C° 0 mm 5 mps 640 mmHg 67%
    23:00 +21°C° 0 mm 4 mps 640 mmHg 68%

    23 July, Tuesday

    Time Temperature Precipitation Wind Pressure Humidity
    00:00 +21°C° 0 mm 4 mps 640 mmHg 69%
    01:00 +20°C° 0 mm 3 mps 640 mmHg 70%
    02:00 +20°C° 0 mm 3 mps 640 mmHg 72%
    03:00 +19°C° 0 mm 3 mps 640 mmHg 73%
    04:00 +20°C° 0 mm 3 mps 640 mmHg 72%
    05:00 +20°C° 0 mm 2 mps 640 mmHg 71%
    06:00 +20°C° 0 mm 2 mps 641 mmHg 70%
    07:00 +23°C° 0 mm 2 mps 641 mmHg 64%
    08:00 +25°C° 0 mm 2 mps 641 mmHg 59%
    09:00 +27°C° 0 mm 2 mps 642 mmHg 53%
    10:00 +28°C° 0.1 mm 2 mps 642 mmHg 50%
    11:00 +29°C° 0.1 mm 2 mps 642 mmHg 46%
    12:00 +31°C° 0.1 mm 2 mps 642 mmHg 43%
    13:00 +31°C° 0.2 mm 2 mps 642 mmHg 40%
    14:00 +32°C° 0.2 mm 2 mps 641 mmHg 38%
    15:00 +32°C° 0.2 mm 2 mps 641 mmHg 36%
    16:00 +31°C° 0.3 mm 3 mps 641 mmHg 42%
    17:00 +29°C° 0.3 mm 4 mps 640 mmHg 47%
    18:00 +28°C° 0.3 mm 5 mps 640 mmHg 52%
    19:00 +26°C° 0.2 mm 5 mps 640 mmHg 57%
    20:00 +25°C° 0.2 mm 4 mps 640 mmHg 61%
    21:00 +22°C° 0.2 mm 4 mps 640 mmHg 66%
    22:00 +22°C° 0 mm 4 mps 640 mmHg 66%
    23:00 +21°C° 0 mm 3 mps 640 mmHg 67%
    Show more